Change the Weather History Date:

Sunday, February 5, 2012

  Actual Average Record
Temperature  
Mean Temperature 29 °F 18 °F  
Max Temperature 30 °F 26 °F 51 °F (2005)
Min Temperature 27 °F 10 °F -27 °F (1979)
Degree Days  
Heating Degree Days 36 47  
Month to date heating degree days 174 239  
Since 1 July heating degree days 3865 4793  
Cooling Degree Days 0 0  
Month to date cooling degree days 0 0  
Year to date cooling degree days 0 0  
Moisture  
Dew Point 25 °F    
Average Humidity 89    
Maximum Humidity 92    
Minimum Humidity 85    
Precipitation  
Precipitation 0.00 in 0.02 in 0.52 in (1908)
Month to date precipitation T 0.12  
Year to date precipitation 0.36 1.02  
Snow  
Snow 0.00 in 0.30 in 7.50 in (1908)
Month to date snowfall T 1.5  
Since 1 July snowfall 14.9 35.5  
Snow Depth 0.00 in    
Sea Level Pressure  
Sea Level Pressure 30.35 in    
Wind  
Wind Speed 7 mph (West)    
Max Wind Speed 13 mph    
Max Gust Speed 16 mph    
Visibility 6 miles    
Events      
T = Trace of Precipitation, MM = Missing Value Source: NWS Daily Summary

Daily Weather History Graph

Daily Weather History Graph

Search for Another Location

Airport or City:

Trip Planner

Search our weather history database for the weather conditions in past years. The results will help you decide how hot, cold, wet, or windy it might be!

Date:

Astronomy

Feb. 05, 2012 Rise Set
Actual Time 7:28 AM CST 5:26 PM CST
Civil Twilight 6:57 AM CST 5:57 PM CST
Nautical Twilight 6:22 AM CST 6:32 PM CST
Astronomical Twilight 5:48 AM CST 7:06 PM CST
Moon 3:22 PM CST (2/5) 5:43 AM CST (2/5)
Length of Visible Light 10h 59m
Length of Day
9h 58m
Waxing Gibbous, 95% of the Moon is Illuminated
Feb 5
Waxing Gibbous
Feb 7
Full
Feb 14
Last Quarter
Feb 21
New
Feb 29
First Quarter

Hourly Weather History & Observations

Time (CST) Temp. Windchill Dew Point Humidity Pressure Visibility Wind Dir Wind Speed Gust Speed Precip Events Conditions
12:53 AM 28.0 °F 18.6 °F 26.1 °F 92% 30.38 in 7.0 mi NW 10.4 mph - N/A   Overcast
1:53 AM 28.0 °F 20.0 °F 26.1 °F 92% 30.37 in 9.0 mi NW 8.1 mph - N/A   Overcast
2:53 AM 28.0 °F 19.3 °F 25.0 °F 88% 30.38 in 9.0 mi NW 9.2 mph - N/A   Overcast
3:22 AM 28.4 °F 20.4 °F 24.8 °F 86% 30.34 in 9.0 mi NW 8.1 mph - N/A   Overcast
3:53 AM 28.0 °F 20.8 °F 25.0 °F 88% 30.37 in 8.0 mi NW 6.9 mph - N/A   Overcast
4:53 AM 28.0 °F 20.0 °F 24.1 °F 85% 30.37 in 8.0 mi NW 8.1 mph - N/A   Overcast
5:53 AM 28.0 °F - 24.1 °F 85% 30.38 in 8.0 mi Calm Calm - N/A   Overcast
6:53 AM 28.0 °F - 24.1 °F 85% 30.38 in 8.0 mi Calm Calm - N/A   Overcast
7:53 AM 28.0 °F 22.8 °F 24.1 °F 85% 30.38 in 6.0 mi WNW 4.6 mph - N/A   Overcast
8:53 AM 28.0 °F - 25.0 °F 88% 30.39 in 4.0 mi Calm Calm - N/A   Overcast
9:13 AM 26.6 °F 19.1 °F 24.8 °F 93% 30.35 in 3.0 mi WSW 6.9 mph - N/A   Overcast
9:37 AM 26.6 °F 17.5 °F 24.8 °F 93% 30.36 in 4.0 mi West 9.2 mph - N/A   Overcast
9:53 AM 28.0 °F 24.2 °F 25.0 °F 88% 30.40 in 4.0 mi WSW 3.5 mph - N/A   Overcast
10:53 AM 28.0 °F 21.7 °F 24.1 °F 85% 30.40 in 5.0 mi WSW 5.8 mph - N/A   Overcast
11:53 AM 28.0 °F 19.3 °F 24.1 °F 85% 30.39 in 5.0 mi WNW 9.2 mph - N/A   Overcast
12:53 PM 28.9 °F 22.8 °F 25.0 °F 85% 30.37 in 5.0 mi WSW 5.8 mph - N/A   Overcast
1:53 PM 28.9 °F 20.4 °F 25.0 °F 85% 30.35 in 5.0 mi WSW 9.2 mph - N/A   Overcast
2:53 PM 30.0 °F 23.2 °F 26.1 °F 85% 30.34 in 5.0 mi West 6.9 mph - N/A   Overcast
3:53 PM 28.9 °F 21.9 °F 26.1 °F 89% 30.33 in 5.0 mi WSW 6.9 mph - N/A   Overcast
4:53 PM 28.9 °F 23.9 °F 26.1 °F 89% 30.33 in 5.0 mi West 4.6 mph - N/A   Overcast
5:53 PM 28.9 °F 23.9 °F 26.1 °F 89% 30.32 in 5.0 mi SW 4.6 mph - N/A   Overcast
6:53 PM 28.9 °F 21.1 °F 26.1 °F 89% 30.31 in 7.0 mi SW 8.1 mph - N/A   Overcast
7:53 PM 28.9 °F 19.8 °F 26.1 °F 89% 30.30 in 6.0 mi WSW 10.4 mph - N/A   Overcast
8:53 PM 28.9 °F 20.4 °F 26.1 °F 89% 30.28 in 6.0 mi WSW 9.2 mph - N/A   Overcast
9:53 PM 28.9 °F 20.4 °F 26.1 °F 89% 30.27 in 6.0 mi WSW 9.2 mph - N/A   Overcast
10:53 PM 30.0 °F 21.7 °F 26.1 °F 85% 30.25 in 5.0 mi SW 9.2 mph - N/A   Overcast
11:53 PM 28.9 °F 19.8 °F 26.1 °F 89% 30.23 in 5.0 mi SW 10.4 mph - N/A   Overcast